This demonstration page uses our WeatherBlox Daily Observations layout. Learn more.

Left ArrowRight Arrow

34.16533, -84.80231

Hourly Observations for May 5, 2017

Temp ( °F °C ) Dew Point ( °F °C ) Humidity (%) Winds ( mph kmh ) Pressure ( in mb ) Visibility ( mi km ) Precip ( " mm )
12:53 am 00:53 Partly Cloudy 53 11.7 53 11.7 100 100 Calm 29.56 1001 10 16 0.00 0.00
1:53 am 01:53 Cloudy 54 12.2 54 12.2 100 100 VRB 6 9 29.54 1000 10 16 0.00 0.00
2:43 am 02:43 Cloudy 52 11.1 52 11.1 100 100 VRB 6 9 29.56 1001 10 16 0.00 0.00
2:53 am 02:53 Cloudy 52 11.1 51 10.6 97 97 VRB 3 6 29.54 1001 10 16 0.00 0.00
3:01 am 03:01 Cloudy 52 11.1 51 10.6 97 97 VRB 7 11 29.56 1001 10 16 0.00 0.00
3:44 am 03:44 Cloudy 51 10.6 51 10.6 100 100 VRB 5 7 29.56 1001 10 16 0.00 0.00
3:53 am 03:53 Cloudy 51 10.6 51 10.6 100 100 Calm 29.55 1001 10 16 0.00 0.00
4:02 am 04:02 Cloudy 51 10.6 51 10.6 100 100 VRB 3 6 29.56 1001 10 16 0.00 0.00
4:53 am 04:53 Cloudy 50 10 50 10 100 100 VRB 5 7 29.55 1001 9 14 0.01 0.25
5:19 am 05:19 Mostly Cloudy 49 9.4 48 8.9 97 97 VRB 7 11 29.59 1002 10 16 0.00 0.00
5:53 am 05:53 Cloudy 49 9.4 48 8.9 97 97 VRB 3 6 29.55 1001 10 16 0.00 0.00
6:53 am 06:53 Cloudy 48 8.9 48 8.9 100 100 VRB 3 6 29.55 1001 9 14 0.00 0.00
7:29 am 07:29 Cloudy 48 8.9 48 8.9 100 100 Calm 29.59 1002 9 14 0.00 0.00
7:45 am 07:45 Cloudy 49 9.4 49 9.4 100 100 SSW 3 6 29.59 1002 9 14 0.00 0.00
7:53 am 07:53 Cloudy 49 9.4 49 9.4 100 100 Calm 29.56 1001 10 16 0.00 0.00
8:53 am 08:53 Cloudy 49 9.4 49 9.4 100 100 SSW 6 9 29.56 1001 10 16 0.00 0.00
9:53 am 09:53 Cloudy 51 10.6 50 10 96 96 VRB 3 6 29.56 1001 10 16 0.00 0.00
10:53 am 10:53 Cloudy 52 11.1 49 9.4 89 89 SW 8 13 29.56 1001 10 16 0.00 0.00
11:53 am 11:53 Cloudy 53 11.7 50 10 89 89 VRB 3 6 29.57 1001 10 16 0.00 0.00
12:53 pm 12:53 Cloudy 52 11.1 51 10.6 97 97 VRB 5 7 29.58 1002 10 16 0.00 0.00
1:01 pm 13:01 Cloudy 52 11.1 50 10 93 93 VRB 7 11 29.62 1003 10 16 0.00 0.00
1:39 pm 13:39 Cloudy with Light Rain 52 11.1 52 11.1 100 100 VRB 7 11 29.62 1003 4 6 0.01 0.25
1:48 pm 13:48 Cloudy 52 11 52 11 100 100 VRB 6 9 29.62 1003 10 16 0.02 0.51
1:53 pm 13:53 Cloudy 53 11.7 52 11.1 96 96 VRB 5 7 29.59 1002 10 16 0.02 0.51
2:23 pm 14:23 Cloudy with Light Rain 52 11.1 52 11.1 100 100 SSW 8 13 29.62 1003 4 6 0.01 0.25
2:42 pm 14:42 Cloudy 53 11.7 52 11.1 96 96 SSW 8 13 29.62 1003 10 16 0.01 0.25
2:53 pm 14:53 Cloudy 52 11.1 51 10.6 97 97 SW 8 13 29.60 1002 7 11 0.01 0.25
3:20 pm 15:20 Cloudy 53 11.7 51 10.6 93 93 SSW 8 13 29.62 1003 9 14 0.00 0.03
3:53 pm 15:53 Cloudy 52 11.1 52 11.1 100 100 SSW 9 15 29.60 1003 10 16 0.01 0.25
4:00 pm 16:00 Cloudy with Light Rain 52 11.1 52 11.1 100 100 VRB 7 11 29.62 1003 5 8 0.00 0.03
4:11 pm 16:11 Cloudy 52 11.1 52 11.1 100 100 VRB 5 7 29.62 1003 10 16 0.00 0.03
4:22 pm 16:22 Cloudy 52 11.1 51 10.6 97 97 VRB 6 9 29.62 1003 10 16 0.00 0.03
4:53 pm 16:53 Cloudy with Light Rain 52 11.1 51 10.6 97 97 VRB 5 7 29.61 1003 9 14 0.00 0.03
5:06 pm 17:06 Cloudy 52 11.1 51 10.6 97 97 VRB 5 7 29.62 1003 10 16 0.00 0.03
5:14 pm 17:14 Cloudy 52 11.1 51 10.6 97 97 undefined N/A 29.65 1004 10 16 0.00 0.03
5:26 pm 17:26 Cloudy with Light Rain 51 10.6 50 10 96 96 VRB 5 7 29.65 1004 6 10 0.00 0.03
5:37 pm 17:37 Cloudy with Light Rain 51 10.6 51 10.6 100 100 undefined N/A 29.65 1004 7 11 0.00 0.03
5:53 pm 17:53 Cloudy 51 10.6 51 10.6 100 100 VRB 5 7 29.63 1003 10 16 0.01 0.25
6:53 pm 18:53 Cloudy 52 11.1 50 10 93 93 VRB 5 7 29.64 1004 10 16 0.00 0.03
7:28 pm 19:28 Cloudy 52 11.1 49 9.4 89 89 VRB 5 7 29.65 1004 10 16 0.00 0.00
7:53 pm 19:53 Cloudy 51 10.6 48 8.9 89 89 VRB 3 6 29.65 1004 10 16 0.00 0.00
8:53 pm 20:53 Cloudy 50 10 48 8.9 93 93 Calm 29.69 1005 10 16 0.00 0.00
9:53 pm 21:53 Cloudy 50 10 47 8.3 89 89 VRB 3 6 29.71 1006 10 16 0.00 0.00
10:53 pm 22:53 Cloudy 49 9.4 45 7.2 86 86 VRB 3 6 29.72 1007 10 16 0.00 0.00
11:53 pm 23:53 Cloudy 49 9.4 44 6.7 83 83 Calm 29.73 1007 10 16 0.00 0.00

Powered by AerisWeather